Hoquiam, WA

2:51 PM PST on January 21, 2017 (GMT -0800)
Hoquiam

Weather History for KHQM - March, 2013

Change the Weather History Date:

Saturday, March 9, 2013

  Actual Average Record
Temperature  
Mean Temperature 40 °F 45 °F  
Max Temperature 48 °F 52 °F 67 °F (1981)
Min Temperature 31 °F 39 °F 28 °F (1962)
Degree Days  
Heating Degree Days 25 20  
Month to date heating degree days 192 180  
Cooling Degree Days 0 0  
Month to date cooling degree days 0 0  
Year to date cooling degree days 0 0  
Moisture  
Dew Point 35 °F    
Average Humidity 86    
Maximum Humidity 100    
Minimum Humidity 71    
Precipitation  
Precipitation 0.00 in 0.22 in 2.53 in (2016)
Month to date precipitation 0.98 2.04  
Year to date precipitation 13.98 19.58  
Sea Level Pressure  
Sea Level Pressure 30.40 in    
Wind  
Wind Speed 4 mph (East)    
Max Wind Speed 13 mph    
Max Gust Speed 15 mph    
Visibility 4 miles    
Events Fog    
T = Trace of Precipitation, MM = Missing Value Source: NWS Daily Summary

Daily Weather History Graph

Daily Weather History Graph

Search for Another Location

Airport or City:

Trip Planner

Search our weather history database for the weather conditions in past years. The results will help you decide how hot, cold, wet, or windy it might be!

Date:

Astronomy

Mar. 09, 2013 Rise Set
Actual Time 6:39 AM PST 6:13 PM PST
Civil Twilight 6:09 AM PST 6:43 PM PST
Nautical Twilight 5:34 AM PST 7:19 PM PST
Astronomical Twilight 4:58 AM PST 7:54 PM PST
Moon 5:13 AM PST (3/9) 4:17 PM PST (3/9)
Length of Visible Light 12h 34m
Length of Day
11h 33m
Waning Crescent, 5% of the Moon is Illuminated
Mar 9
Waning Crescent
Mar 11
New
Mar 19
First Quarter
Mar 27
Full
Apr 2
Last Quarter

Hourly Weather History & Observations

Time (PST) Temp. Windchill Dew Point Humidity Pressure Visibility Wind Dir Wind Speed Gust Speed Precip Events Conditions
12:53 AM 33.1 °F 28.7 °F 32.0 °F 96% 30.27 in 4.0 mi ENE 4.6 mph - N/A   Clear
1:53 AM 33.1 °F 30.0 °F 33.1 °F 100% 30.29 in 9.0 mi ENE 3.5 mph - N/A   Clear
2:53 AM 33.1 °F 26.1 °F 32.0 °F 96% 30.29 in 6.0 mi ENE 8.1 mph - N/A   Partly Cloudy
2:58 AM 33.8 °F 27.0 °F 33.8 °F 100% 30.28 in 1.8 mi ENE 8.1 mph - N/A   Scattered Clouds
3:03 AM 33.8 °F 26.4 °F 33.8 °F 100% 30.28 in 0.8 mi ENE 9.2 mph - N/A   Mist
3:11 AM 33.8 °F 27.7 °F 33.8 °F 100% 30.28 in 2.0 mi ENE 6.9 mph - N/A   Mostly Cloudy
3:13 AM 33.8 °F 27.7 °F 33.8 °F 100% 30.28 in 4.0 mi ENE 6.9 mph - N/A   Scattered Clouds
3:27 AM 32.0 °F 28.7 °F 32.0 °F 100% 30.28 in 6.0 mi ENE 3.5 mph - N/A   Mostly Cloudy
3:53 AM 32.0 °F 25.6 °F 32.0 °F 100% 30.30 in 9.0 mi ENE 6.9 mph - N/A   Scattered Clouds
4:11 AM 32.0 °F 25.6 °F 32.0 °F 100% 30.30 in 1.8 mi East 6.9 mph - N/A   Scattered Clouds
4:18 AM 32.0 °F 25.6 °F 32.0 °F 100% 30.31 in 1.0 mi ENE 6.9 mph - N/A   Mist
4:25 AM 32.0 °F 25.6 °F 32.0 °F 100% 30.31 in 0.8 mi ENE 6.9 mph - N/A   Mist
4:43 AM 32.0 °F 27.5 °F 32.0 °F 100% 30.33 in 1.8 mi ENE 4.6 mph - N/A   Overcast
4:53 AM 30.9 °F - 30.9 °F 100% 30.35 in 2.0 mi Calm Calm - N/A   Overcast
5:01 AM 30.2 °F 26.7 °F 30.2 °F 100% 30.33 in 1.5 mi ENE 3.5 mph - N/A   Overcast
5:15 AM 32.0 °F - 32.0 °F 100% 30.34 in 2.5 mi Calm Calm - N/A   Overcast
5:46 AM 30.2 °F - 30.2 °F 100% 30.36 in 1.0 mi Calm Calm - N/A   Mist
5:51 AM 30.2 °F - 30.2 °F 100% 30.36 in 0.8 mi Calm Calm - N/A   Mist
5:53 AM 30.9 °F - 30.0 °F 96% 30.37 in 0.5 mi Calm Calm - N/A Fog Light Freezing Fog
6:04 AM 30.2 °F - 30.2 °F 100% 30.35 in 0.2 mi Calm Calm - N/A Fog Light Freezing Fog
6:11 AM 30.2 °F - 30.2 °F 100% 30.36 in 1.0 mi Calm Calm - N/A   Overcast
6:15 AM 30.2 °F - 30.2 °F 100% 30.36 in 4.0 mi Calm Calm - N/A   Overcast
6:37 AM 32.0 °F 28.7 °F 30.2 °F 93% 30.36 in 1.8 mi ENE 3.5 mph - N/A   Overcast
6:43 AM 32.0 °F 28.7 °F 30.2 °F 93% 30.36 in 0.5 mi ENE 3.5 mph - N/A Fog Fog
6:53 AM 32.0 °F - 32.0 °F 100% 30.38 in 0.2 mi Calm Calm - N/A Fog Fog
7:51 AM 33.8 °F 28.6 °F 33.8 °F 100% 30.38 in 0.2 mi ENE 5.8 mph - N/A Fog Fog
7:53 AM 33.1 °F 27.7 °F 33.1 °F 100% 30.39 in 0.2 mi ENE 5.8 mph - N/A Fog Fog
8:27 AM 33.8 °F - 33.8 °F 100% 30.40 in 0.2 mi Calm Calm - 0.01 in Fog Fog
8:34 AM 35.6 °F 32.8 °F 35.6 °F 100% 30.40 in 0.5 mi ENE 3.5 mph - 0.01 in Fog Fog
8:53 AM 35.1 °F - 35.1 °F 100% 30.42 in 0.8 mi Calm Calm - 0.01 in   Overcast
9:15 AM 35.6 °F - 35.6 °F 100% 30.42 in 0.2 mi Calm Calm - N/A Fog Fog
9:40 AM 37.4 °F 33.8 °F 37.4 °F 100% 30.42 in 0.5 mi ENE 4.6 mph - N/A Fog Fog
9:53 AM 39.0 °F - 39.0 °F 100% 30.44 in 2.5 mi Calm Calm - N/A   Mostly Cloudy
10:00 AM 39.2 °F - 39.2 °F 100% 30.44 in 9.0 mi Calm Calm - N/A   Mostly Cloudy
10:07 AM 39.2 °F 37.0 °F 39.2 °F 100% 30.44 in 10.0 mi ESE 3.5 mph - N/A   Scattered Clouds
10:53 AM 39.9 °F 36.7 °F 39.9 °F 100% 30.46 in 5.0 mi SSE 4.6 mph - N/A   Partly Cloudy
10:57 AM 39.2 °F 35.9 °F 39.2 °F 100% 30.45 in 1.5 mi SSE 4.6 mph - N/A   Scattered Clouds
11:05 AM 39.2 °F 35.9 °F 39.2 °F 100% 30.45 in 1.2 mi SSW 4.6 mph - N/A   Mostly Cloudy
11:23 AM 41.0 °F 37.1 °F 39.2 °F 93% 30.45 in 0.5 mi SW 5.8 mph - N/A Fog Fog
11:30 AM 41.0 °F 39.0 °F 39.2 °F 93% 30.45 in 2.0 mi Variable 3.5 mph - N/A   Overcast
11:37 AM 42.8 °F 41.1 °F 39.2 °F 87% 30.45 in 6.0 mi Variable 3.5 mph - N/A   Mostly Cloudy
11:42 AM 42.8 °F 40.1 °F 39.2 °F 87% 30.45 in 2.0 mi West 4.6 mph - N/A   Overcast
11:53 AM 42.1 °F 38.4 °F 41.0 °F 96% 30.47 in 3.0 mi SSW 5.8 mph - N/A   Mostly Cloudy
12:14 PM 42.8 °F 40.1 °F 39.2 °F 87% 30.46 in 9.0 mi WSW 4.6 mph - N/A   Scattered Clouds
12:53 PM 46.0 °F 42.5 °F 42.1 °F 86% 30.47 in 10.0 mi SW 6.9 mph - N/A   Clear
1:53 PM 46.9 °F - 43.0 °F 86% 30.48 in 10.0 mi SW 11.5 mph - N/A   Clear
2:53 PM 46.9 °F - 43.0 °F 86% 30.48 in 10.0 mi SW 10.4 mph - N/A   Clear
3:53 PM 46.9 °F - 42.1 °F 83% 30.48 in 10.0 mi SW 11.5 mph - N/A   Clear
4:53 PM 46.9 °F - 37.9 °F 71% 30.49 in 10.0 mi WSW 8.1 mph - N/A   Clear
5:53 PM 46.0 °F 41.9 °F 37.0 °F 71% 30.50 in 10.0 mi West 8.1 mph - N/A   Clear
6:53 PM 44.1 °F - 37.0 °F 76% 30.51 in 10.0 mi Calm Calm - N/A   Clear
7:53 PM 42.1 °F - 37.0 °F 82% 30.52 in 10.0 mi Calm Calm - N/A   Clear
8:53 PM 41.0 °F - 37.0 °F 86% 30.52 in 10.0 mi Calm Calm - N/A   Clear
9:53 PM 39.0 °F - 36.0 °F 89% 30.53 in 10.0 mi Calm Calm - N/A   Clear
10:53 PM 37.9 °F 34.4 °F 36.0 °F 93% 30.52 in 10.0 mi ENE 4.6 mph - N/A   Clear
11:53 PM 37.9 °F - 36.0 °F 93% 30.52 in 9.0 mi Calm Calm - N/A   Clear